Location: Newark
(35.3494°N, 94.4375°W)
Time: 02:37:37
(UTC+00:00)

Hubble Space Telescope - Visible Passes

Search period start: 01 October 2020 00:00
Search period end: 11 October 2020 00:00
Orbit: 536 x 540 km, 28.5° (Epoch: 30 September)

Date Brightness Start Highest point End Pass type
(mag) Time Alt. Az. Time Alt. Az. Time Alt. Az.
01 Oct 2.8 10:00:52 21° SE 10:00:52 21° SE 10:02:41 10° ESE visible
01 Oct 2.3 11:36:24 10° WSW 11:39:46 24° SSW 11:43:08 10° SE visible
02 Oct 3.3 09:50:51 16° SE 09:50:51 16° SE 09:51:53 10° ESE visible
02 Oct 2.4 11:26:11 12° WSW 11:28:57 22° SSW 11:32:09 10° SE visible
03 Oct 3.7 09:40:52 11° ESE 09:40:52 11° ESE 09:41:05 10° ESE visible
03 Oct 2.5 11:16:12 14° SW 11:18:08 19° SSW 11:21:05 10° SSE visible
04 Oct 2.6 11:06:16 15° SW 11:07:18 16° SSW 11:09:55 10° SSE visible
05 Oct 2.8 10:56:22 14° SSW 10:56:28 14° SSW 10:58:36 10° S visible
06 Oct 3.2 10:46:32 11° S 10:46:32 11° S 10:46:55 10° S visible
